BTO6174 SBSI-SBCG

Flight info

Callsign BTO6174
Flight time 1h 19m
Altitude 43000
Route DORNO DCT VULAK/N0478F410 UZ63 KOXAL
Aircraft C700/L-SBDGHM1RWXY/LB2

Departure

Time 2026-04-26 22:15
Airport Presidente João Batista Figueiredo Airport (SBSI)

Arrival

Time 2026-04-26 23:34
Airport Campo Grande Airport (SBCG)
Time Latitude Longitude Altitude Speed Heading
2026-04-26 21:57 -11.87832 -55.58256 1280 ft 0 kts 104°
2026-04-26 22:08 -11.87827 -55.58272 1284 ft 2 kts 121°
2026-04-26 22:08 -11.87814 -55.58280 1280 ft 2 kts 186°
2026-04-26 22:08 -11.87809 -55.58280 1280 ft 0 kts 192°
2026-04-26 22:10 -11.87814 -55.58281 1281 ft 4 kts 192°
2026-04-26 22:10 -11.87850 -55.58292 1281 ft 5 kts 211°
2026-04-26 22:11 -11.87850 -55.58331 1280 ft 8 kts 284°
2026-04-26 22:11 -11.87834 -55.58396 1279 ft 12 kts 284°
2026-04-26 22:11 -11.87852 -55.58459 1278 ft 11 kts 203°
2026-04-26 22:11 -11.87932 -55.58482 1279 ft 13 kts 194°
2026-04-26 22:12 -11.88025 -55.58507 1280 ft 15 kts 194°
2026-04-26 22:12 -11.88132 -55.58535 1281 ft 17 kts 195°
2026-04-26 22:12 -11.88251 -55.58567 1283 ft 18 kts 195°
2026-04-26 22:12 -11.88381 -55.58602 1284 ft 20 kts 194°
2026-04-26 22:13 -11.88527 -55.58640 1286 ft 23 kts 194°
2026-04-26 22:13 -11.88676 -55.58681 1285 ft 22 kts 196°
2026-04-26 22:13 -11.88830 -55.58722 1285 ft 24 kts 194°
2026-04-26 22:13 -11.88999 -55.58768 1284 ft 26 kts 194°
2026-04-26 22:14 -11.89128 -55.58801 1284 ft 12 kts 192°
2026-04-26 22:14 -11.89184 -55.58786 1284 ft 7 kts 168°
2026-04-26 22:14 -11.89194 -55.58817 1284 ft 7 kts 348°
2026-04-26 22:14 -11.89111 -55.58797 1284 ft 32 kts 15°
2026-04-26 22:15 -11.88558 -55.58647 1285 ft 131 kts 15°
2026-04-26 22:15 -11.87477 -55.58365 1854 ft 171 kts 15°
2026-04-26 22:15 -11.86273 -55.58369 2914 ft 179 kts 341°
2026-04-26 22:15 -11.85346 -55.59217 4011 ft 184 kts 304°
2026-04-26 22:16 -11.84747 -55.60375 5154 ft 185 kts 298°
2026-04-26 22:16 -11.84153 -55.61574 6195 ft 199 kts 300°
2026-04-26 22:16 -11.83423 -55.62882 7180 ft 225 kts 301°
2026-04-26 22:16 -11.82993 -55.64504 8224 ft 253 kts 272°
2026-04-26 22:17 -11.83219 -55.66384 9311 ft 278 kts 250°
2026-04-26 22:17 -11.84252 -55.68137 10306 ft 301 kts 225°
2026-04-26 22:17 -11.86053 -55.69344 11271 ft 322 kts 198°
2026-04-26 22:17 -11.88269 -55.69768 12737 ft 326 kts 186°
2026-04-26 22:18 -11.90540 -55.70055 14096 ft 335 kts 185°
2026-04-26 22:18 -11.92881 -55.70328 15324 ft 342 kts 186°
2026-04-26 22:18 -11.95269 -55.70640 16544 ft 349 kts 187°
2026-04-26 22:18 -11.97739 -55.70979 17769 ft 356 kts 187°
2026-04-26 22:19 -12.00196 -55.71304 18809 ft 364 kts 186°
2026-04-26 22:19 -12.02802 -55.71642 19771 ft 374 kts 186°
2026-04-26 22:19 -12.05378 -55.71980 20701 ft 382 kts 186°
2026-04-26 22:19 -12.08082 -55.72339 21631 ft 391 kts 186°
2026-04-26 22:20 -12.10816 -55.72701 22538 ft 400 kts 186°
2026-04-26 22:20 -12.13574 -55.73064 23429 ft 408 kts 186°
2026-04-26 22:20 -12.16415 -55.73437 24223 ft 414 kts 186°
2026-04-26 22:20 -12.19280 -55.73817 25096 ft 417 kts 186°
2026-04-26 22:21 -12.22175 -55.74199 25949 ft 421 kts 186°
2026-04-26 22:21 -12.25099 -55.74585 26788 ft 425 kts 186°
2026-04-26 22:21 -12.28049 -55.74974 27618 ft 429 kts 186°
2026-04-26 22:21 -12.31019 -55.75367 28433 ft 433 kts 187°
2026-04-26 22:22 -12.34026 -55.75764 29229 ft 437 kts 187°
2026-04-26 22:22 -12.37058 -55.76165 29999 ft 442 kts 187°
2026-04-26 22:22 -12.40129 -55.76570 30658 ft 446 kts 187°
2026-04-26 22:22 -12.43224 -55.76980 31300 ft 450 kts 187°
2026-04-26 22:23 -12.46354 -55.77394 31921 ft 454 kts 187°
2026-04-26 22:23 -12.49507 -55.77811 32511 ft 458 kts 187°
2026-04-26 22:23 -12.52687 -55.78231 33091 ft 462 kts 187°
2026-04-26 22:23 -12.55871 -55.78653 33870 ft 460 kts 188°
2026-04-26 22:24 -12.59045 -55.79074 34573 ft 458 kts 188°
2026-04-26 22:24 -12.62192 -55.79490 35280 ft 456 kts 188°
2026-04-26 22:24 -12.65333 -55.79905 35995 ft 454 kts 188°
2026-04-26 22:24 -12.68460 -55.80320 36712 ft 451 kts 188°
2026-04-26 22:25 -12.71571 -55.80733 37371 ft 450 kts 188°
2026-04-26 22:25 -12.74670 -55.81143 37981 ft 448 kts 188°
2026-04-26 22:25 -12.77758 -55.81552 38551 ft 447 kts 188°
2026-04-26 22:25 -12.80837 -55.81960 39002 ft 445 kts 188°
2026-04-26 22:26 -12.83956 -55.82375 39440 ft 444 kts 188°
2026-04-26 22:26 -12.87013 -55.82780 39833 ft 443 kts 188°
2026-04-26 22:26 -12.90068 -55.83185 40207 ft 442 kts 188°
2026-04-26 22:26 -12.93108 -55.83589 40578 ft 440 kts 188°
2026-04-26 22:27 -12.96143 -55.83992 40921 ft 439 kts 188°
2026-04-26 22:27 -12.99174 -55.84394 41235 ft 438 kts 188°
2026-04-26 22:27 -13.02195 -55.84795 41528 ft 437 kts 188°
2026-04-26 22:27 -13.05219 -55.85197 41821 ft 436 kts 188°
2026-04-26 22:28 -13.08229 -55.85597 42100 ft 436 kts 188°
2026-04-26 22:28 -13.11236 -55.85997 42343 ft 435 kts 189°
2026-04-26 22:28 -13.14243 -55.86397 42583 ft 435 kts 189°
2026-04-26 22:28 -13.17236 -55.86794 42818 ft 434 kts 189°
2026-04-26 22:29 -13.23280 -55.87600 42902 ft 441 kts 189°
2026-04-26 22:29 -13.29431 -55.88418 42910 ft 450 kts 189°
2026-04-26 22:30 -13.35709 -55.89254 42919 ft 458 kts 189°
2026-04-26 22:30 -13.42079 -55.90103 42930 ft 465 kts 189°
2026-04-26 22:31 -13.48526 -55.90962 42921 ft 468 kts 189°
2026-04-26 22:31 -13.54989 -55.91825 42920 ft 468 kts 189°
2026-04-26 22:32 -13.61461 -55.92688 42921 ft 469 kts 189°
2026-04-26 22:32 -13.67930 -55.93552 42924 ft 469 kts 189°
2026-04-26 22:33 -13.77644 -55.94850 42925 ft 470 kts 189°
2026-04-26 22:34 -13.84123 -55.95717 42927 ft 469 kts 189°
2026-04-26 22:34 -13.90607 -55.96584 42925 ft 470 kts 189°
2026-04-26 22:35 -13.97087 -55.97451 42928 ft 470 kts 189°
2026-04-26 22:35 -14.03587 -55.98322 42925 ft 471 kts 189°
2026-04-26 22:36 -14.08988 -55.99046 42930 ft 471 kts 189°
2026-04-26 22:36 -14.15494 -55.99918 42928 ft 471 kts 189°
2026-04-26 22:37 -14.21993 -56.00790 42923 ft 471 kts 189°
2026-04-26 22:37 -14.28497 -56.01663 42924 ft 471 kts 189°
2026-04-26 22:38 -14.35001 -56.02537 42925 ft 471 kts 189°
2026-04-26 22:38 -14.41514 -56.03412 42922 ft 471 kts 189°
2026-04-26 22:39 -14.48015 -56.04287 42913 ft 471 kts 189°
2026-04-26 22:39 -14.54518 -56.05162 42921 ft 471 kts 189°
2026-04-26 22:40 -14.61024 -56.06038 42916 ft 471 kts 189°
2026-04-26 22:40 -14.67525 -56.06914 42916 ft 471 kts 189°
2026-04-26 22:41 -14.74037 -56.07792 42912 ft 471 kts 189°
2026-04-26 22:41 -14.80544 -56.08669 42917 ft 471 kts 189°
2026-04-26 22:42 -14.87049 -56.09547 42911 ft 471 kts 189°
2026-04-26 22:42 -14.93556 -56.10426 42911 ft 472 kts 189°
2026-04-26 22:43 -15.00086 -56.11138 42910 ft 473 kts 181°
2026-04-26 22:43 -15.06689 -56.11112 42911 ft 473 kts 181°
2026-04-26 22:44 -15.13275 -56.11142 42915 ft 473 kts 181°
2026-04-26 22:44 -15.19815 -56.11136 42917 ft 473 kts 181°
2026-04-26 22:45 -15.26439 -56.11152 42915 ft 473 kts 181°
2026-04-26 22:45 -15.33015 -56.11155 42909 ft 473 kts 181°
2026-04-26 22:46 -15.39595 -56.11165 42905 ft 472 kts 181°
2026-04-26 22:46 -15.46176 -56.11171 42899 ft 473 kts 181°
2026-04-26 22:47 -15.52762 -56.11180 42898 ft 473 kts 180°
2026-04-26 22:47 -15.59318 -56.11187 42893 ft 474 kts 180°
2026-04-26 22:48 -15.65900 -56.10969 42886 ft 474 kts 171°
2026-04-26 22:48 -15.72281 -56.09246 42889 ft 474 kts 164°
2026-04-26 22:49 -15.78640 -56.07400 42897 ft 474 kts 164°
2026-04-26 22:49 -15.84990 -56.05542 42898 ft 474 kts 164°
2026-04-26 22:50 -15.91332 -56.03692 42899 ft 473 kts 164°
2026-04-26 22:50 -15.97678 -56.01837 42900 ft 473 kts 164°
2026-04-26 22:51 -16.04011 -55.99985 42902 ft 473 kts 164°
2026-04-26 22:51 -16.10349 -55.98130 42899 ft 473 kts 164°
2026-04-26 22:52 -16.16698 -55.96272 42904 ft 473 kts 164°
2026-04-26 22:52 -16.23038 -55.94413 42899 ft 473 kts 164°
2026-04-26 22:53 -16.29335 -55.92568 42900 ft 473 kts 164°
2026-04-26 22:53 -16.35672 -55.90707 42903 ft 472 kts 164°
2026-04-26 22:54 -16.41997 -55.88847 42904 ft 473 kts 164°
2026-04-26 22:54 -16.48331 -55.86983 42904 ft 473 kts 164°
2026-04-26 22:55 -16.54677 -55.85117 42903 ft 473 kts 164°
2026-04-26 22:55 -16.61014 -55.83252 42902 ft 472 kts 164°
2026-04-26 22:56 -16.67338 -55.81391 42900 ft 472 kts 164°
2026-04-26 22:56 -16.73623 -55.79538 42899 ft 472 kts 164°
2026-04-26 22:57 -16.79984 -55.77664 42903 ft 472 kts 164°
2026-04-26 22:57 -16.86303 -55.75799 42899 ft 471 kts 164°
2026-04-26 22:58 -16.92611 -55.73937 42901 ft 471 kts 164°
2026-04-26 22:58 -16.98913 -55.72074 42902 ft 471 kts 164°
2026-04-26 22:59 -17.05228 -55.70208 42903 ft 471 kts 164°
2026-04-26 22:59 -17.11572 -55.68331 42903 ft 471 kts 163°
2026-04-26 23:00 -17.17875 -55.66464 42904 ft 470 kts 163°
2026-04-26 23:00 -17.24173 -55.64600 42902 ft 470 kts 163°
2026-04-26 23:01 -17.30460 -55.62735 42905 ft 470 kts 163°
2026-04-26 23:01 -17.36750 -55.60871 42896 ft 469 kts 163°
2026-04-26 23:02 -17.43040 -55.59000 42897 ft 469 kts 163°
2026-04-26 23:02 -17.49318 -55.57137 42902 ft 469 kts 163°
2026-04-26 23:03 -17.55595 -55.55269 42906 ft 468 kts 163°
2026-04-26 23:03 -17.61861 -55.53406 42904 ft 467 kts 163°
2026-04-26 23:04 -17.68122 -55.51543 42903 ft 467 kts 163°
2026-04-26 23:04 -17.74379 -55.49691 42907 ft 467 kts 164°
2026-04-26 23:05 -17.80625 -55.47835 42906 ft 467 kts 163°
2026-04-26 23:05 -17.86881 -55.45979 42903 ft 467 kts 164°
2026-04-26 23:06 -17.93138 -55.44116 42907 ft 467 kts 164°
2026-04-26 23:06 -17.99406 -55.42254 42906 ft 467 kts 164°
2026-04-26 23:07 -18.04651 -55.40690 42907 ft 468 kts 164°
2026-04-26 23:07 -18.10921 -55.38824 42911 ft 468 kts 164°
2026-04-26 23:08 -18.17182 -55.36956 42909 ft 468 kts 164°
2026-04-26 23:08 -18.23454 -55.35084 42912 ft 468 kts 164°
2026-04-26 23:09 -18.29687 -55.33223 42911 ft 467 kts 164°
2026-04-26 23:09 -18.35953 -55.31350 42911 ft 468 kts 164°
2026-04-26 23:10 -18.42221 -55.29478 42909 ft 468 kts 164°
2026-04-26 23:10 -18.48492 -55.27598 42915 ft 468 kts 164°
2026-04-26 23:11 -18.54765 -55.25721 42917 ft 468 kts 164°
2026-04-26 23:11 -18.61030 -55.23844 42917 ft 468 kts 164°
2026-04-26 23:12 -18.67295 -55.21964 42916 ft 468 kts 164°
2026-04-26 23:12 -18.73600 -55.20071 42921 ft 467 kts 165°
2026-04-26 23:12 -18.76739 -55.19129 42489 ft 470 kts 165°
2026-04-26 23:13 -18.79921 -55.18173 41859 ft 467 kts 164°
2026-04-26 23:13 -18.82994 -55.17248 41256 ft 462 kts 164°
2026-04-26 23:13 -18.86069 -55.16324 40654 ft 458 kts 164°
2026-04-26 23:13 -18.89126 -55.15405 40055 ft 456 kts 164°
2026-04-26 23:14 -18.92220 -55.14474 39453 ft 457 kts 164°
2026-04-26 23:14 -18.95296 -55.13547 38851 ft 461 kts 164°
2026-04-26 23:14 -18.98373 -55.12621 38204 ft 466 kts 164°
2026-04-26 23:14 -19.01522 -55.11672 37583 ft 468 kts 164°
2026-04-26 23:15 -19.04665 -55.10724 36963 ft 471 kts 164°
2026-04-26 23:15 -19.07822 -55.09773 36343 ft 474 kts 164°
2026-04-26 23:15 -19.10999 -55.08815 35720 ft 476 kts 164°
2026-04-26 23:15 -19.14197 -55.07849 35091 ft 479 kts 164°
2026-04-26 23:16 -19.17406 -55.06880 34460 ft 481 kts 164°
2026-04-26 23:16 -19.20638 -55.05904 33808 ft 483 kts 164°
2026-04-26 23:16 -19.23870 -55.04928 33149 ft 484 kts 164°
2026-04-26 23:16 -19.27119 -55.03946 32509 ft 486 kts 164°
2026-04-26 23:17 -19.30380 -55.02960 31866 ft 488 kts 164°
2026-04-26 23:17 -19.33649 -55.01971 31218 ft 490 kts 164°
2026-04-26 23:17 -19.36929 -55.00970 30574 ft 492 kts 164°
2026-04-26 23:17 -19.40223 -54.99945 29913 ft 493 kts 164°
2026-04-26 23:18 -19.43515 -54.98923 29231 ft 490 kts 164°
2026-04-26 23:18 -19.46779 -54.97920 28586 ft 486 kts 165°
2026-04-26 23:18 -19.50006 -54.96929 27948 ft 481 kts 165°
2026-04-26 23:18 -19.53209 -54.95938 27316 ft 477 kts 165°
2026-04-26 23:19 -19.56376 -54.94956 26691 ft 472 kts 165°
2026-04-26 23:19 -19.59514 -54.93988 26073 ft 467 kts 165°
2026-04-26 23:19 -19.62621 -54.93028 25457 ft 463 kts 165°
2026-04-26 23:19 -19.65692 -54.92078 24850 ft 458 kts 165°
2026-04-26 23:20 -19.68744 -54.91135 24247 ft 454 kts 165°
2026-04-26 23:20 -19.71769 -54.90198 23648 ft 449 kts 165°
2026-04-26 23:20 -19.74762 -54.89270 23013 ft 444 kts 165°
2026-04-26 23:20 -19.77708 -54.88358 22425 ft 439 kts 165°
2026-04-26 23:21 -19.80626 -54.87454 21845 ft 435 kts 165°
2026-04-26 23:21 -19.83523 -54.86556 21282 ft 431 kts 165°
2026-04-26 23:21 -19.86398 -54.85686 20729 ft 427 kts 166°
2026-04-26 23:21 -19.89246 -54.84846 20194 ft 424 kts 166°
2026-04-26 23:22 -19.92077 -54.83999 19651 ft 420 kts 166°
2026-04-26 23:22 -19.94842 -54.83159 19125 ft 417 kts 166°
2026-04-26 23:22 -19.97621 -54.82318 18593 ft 413 kts 166°
2026-04-26 23:22 -20.00375 -54.81493 18047 ft 410 kts 166°
2026-04-26 23:23 -20.03102 -54.80674 17517 ft 404 kts 165°
2026-04-26 23:23 -20.05797 -54.79857 17008 ft 400 kts 165°
2026-04-26 23:23 -20.08466 -54.79051 16507 ft 397 kts 165°
2026-04-26 23:23 -20.11034 -54.78008 16002 ft 395 kts 154°
2026-04-26 23:24 -20.13362 -54.76461 15503 ft 393 kts 144°
2026-04-26 23:24 -20.15303 -54.74606 15031 ft 390 kts 136°
2026-04-26 23:24 -20.17233 -54.72597 14545 ft 386 kts 136°
2026-04-26 23:24 -20.19219 -54.70702 14055 ft 382 kts 143°
2026-04-26 23:25 -20.21457 -54.69285 13544 ft 365 kts 155°
2026-04-26 23:25 -20.23773 -54.68373 13065 ft 346 kts 166°
2026-04-26 23:25 -20.26078 -54.67932 12623 ft 329 kts 175°
2026-04-26 23:25 -20.28318 -54.67910 12200 ft 316 kts 185°
2026-04-26 23:26 -20.30451 -54.68261 11797 ft 305 kts 194°
2026-04-26 23:26 -20.32448 -54.68942 11403 ft 299 kts 203°
2026-04-26 23:26 -20.34303 -54.69927 11014 ft 298 kts 212°
2026-04-26 23:26 -20.35991 -54.71198 10625 ft 296 kts 221°
2026-04-26 23:27 -20.37510 -54.72669 10242 ft 295 kts 224°
2026-04-26 23:27 -20.39034 -54.74131 9853 ft 294 kts 223°
2026-04-26 23:27 -20.40554 -54.75583 9439 ft 292 kts 223°
2026-04-26 23:27 -20.41546 -54.76542 9182 ft 290 kts 224°
2026-04-26 23:28 -20.43537 -54.78472 8673 ft 288 kts 224°
2026-04-26 23:28 -20.45021 -54.79903 8294 ft 288 kts 224°
2026-04-26 23:28 -20.46509 -54.81338 7901 ft 286 kts 224°
2026-04-26 23:28 -20.47971 -54.82749 7527 ft 283 kts 224°
2026-04-26 23:29 -20.49420 -54.84151 7158 ft 284 kts 224°
2026-04-26 23:29 -20.50993 -54.85397 6765 ft 283 kts 207°
2026-04-26 23:29 -20.52927 -54.85894 6388 ft 284 kts 184°
2026-04-26 23:29 -20.54904 -54.85559 6004 ft 286 kts 160°
2026-04-26 23:30 -20.56565 -54.84464 5620 ft 285 kts 137°
2026-04-26 23:30 -20.57723 -54.82740 5238 ft 283 kts 114°
2026-04-26 23:30 -20.58164 -54.80714 4879 ft 281 kts 91°
2026-04-26 23:30 -20.57859 -54.78698 4505 ft 274 kts 70°
2026-04-26 23:31 -20.56886 -54.76990 4112 ft 267 kts 49°
2026-04-26 23:31 -20.55618 -54.75697 3784 ft 230 kts 39°
2026-04-26 23:31 -20.54432 -54.74597 3480 ft 220 kts 40°
2026-04-26 23:31 -20.53403 -54.73588 3266 ft 182 kts 41°
2026-04-26 23:32 -20.52531 -54.72752 3041 ft 156 kts 40°
2026-04-26 23:32 -20.51735 -54.71981 2818 ft 153 kts 41°
2026-04-26 23:32 -20.50973 -54.71198 2585 ft 152 kts 43°
2026-04-26 23:32 -20.50191 -54.70443 2418 ft 149 kts 40°
2026-04-26 23:33 -20.49443 -54.69744 2229 ft 138 kts 39°
2026-04-26 23:33 -20.48748 -54.69082 2073 ft 130 kts 40°
2026-04-26 23:33 -20.48295 -54.68649 1990 ft 129 kts 40°
2026-04-26 23:33 -20.47634 -54.68008 1862 ft 125 kts 40°
2026-04-26 23:34 -20.47057 -54.67455 1832 ft 91 kts 43°
2026-04-26 23:34 -20.46707 -54.67117 1833 ft 56 kts 41°
2026-04-26 23:34 -20.46437 -54.66856 1831 ft 48 kts 43°
2026-04-26 23:34 -20.46245 -54.66669 1831 ft 24 kts 42°
2026-04-26 23:35 -20.46149 -54.66602 1832 ft 12 kts 358°
2026-04-26 23:35 -20.46061 -54.66634 1832 ft 15 kts 338°
2026-04-26 23:35 -20.45952 -54.66677 1832 ft 18 kts 340°
2026-04-26 23:35 -20.45847 -54.66721 1832 ft 12 kts 334°
2026-04-26 23:36 -20.45778 -54.66736 1832 ft 8 kts 354°
2026-04-26 23:36 -20.45768 -54.66738 1832 ft 0 kts 354°